모두
South West Rocks Airport YSWK 기상
There is no TAF data available at YSWK or any nearby airports.
There is no METAR data available at YSWK. Showing METAR data for YKMP (18 mi 서남).
최근 KPS METAR 이력(YSWK에 대한 데이터 없음)
| Date | Time (AEST) | Flight Rules | Wind Dir. | Speed | Type | Height AGL (ft) | Visibility | Temp (°C) | Temp (°F) | Dew Point (°C) | Dew Point (°F) | Rel. Humid. | Pressure | Density Altitude | Remarks |
|---|---|---|---|---|---|---|---|---|---|---|---|---|---|---|---|
| 03-5월 | 11:00 | n/a | 340° | 3 kt | Missing | 21° | 69° | 18° | 64° | 83% | 1023 mb | 485 ft | |||
| 03-5월 | 10:00 | n/a | 310° | 3 kt | Missing | 20° | 68° | 17° | 62° | 83% | 1023 mb | 365 ft | |||
| 03-5월 | 09:00 | n/a | 270° | 5 kt | Missing | 18° | 64° | 17° | 62° | 94% | 1023 mb | 125 ft | |||
| 03-5월 | 08:00 | n/a | 280° | 4 kt | Missing | 17° | 62° | 17° | 62° | 100% | 1023 mb | 5 ft | |||
| 03-5월 | 07:00 | n/a | 240° | 4 kt | Missing | 16° | 60° | 15° | 59° | 94% | 1022 mb | -86 ft | |||
| 03-5월 | 06:00 | n/a | 270° | 4 kt | Missing | 16° | 60° | 15° | 59° | 94% | 1022 mb | -86 ft | |||
| 03-5월 | 05:00 | n/a | 260° | 4 kt | Missing | 16° | 60° | 15° | 59° | 94% | 1022 mb | -86 ft | |||
| 03-5월 | 04:00 | n/a | 240° | 4 kt | Missing | 16° | 60° | 15° | 59° | 94% | 1022 mb | -86 ft | |||
| 03-5월 | 03:00 | n/a | 240° | 4 kt | Missing | 16° | 60° | 16° | 60° | 100% | 1022 mb | -86 ft | |||
| 03-5월 | 02:00 | n/a | 270° | 2 kt | Missing | 15° | 59° | 15° | 59° | 100% | 1022 mb | -206 ft | |||
| 03-5월 | 01:00 | n/a | 270° | 4 kt | Missing | 15° | 59° | 15° | 59° | 100% | 1023 mb | -235 ft | |||
| 03-5월 | 00:00 | n/a | 280° | 3 kt | Missing | 17° | 62° | 16° | 60° | 94% | 1023 mb | 5 ft | |||
| 02-5월 | 23:00 | n/a | 290° | 4 kt | Missing | 18° | 64° | 16° | 60° | 88% | 1024 mb | 95 ft | |||
| 02-5월 | 22:00 | n/a | 60° | 8 kt | Missing | 20° | 68° | 16° | 60° | 78% | 1024 mb | 335 ft | |||
| 02-5월 | 21:00 | n/a | 360° | 8 kt | Missing | 19° | 66° | 16° | 60° | 83% | 1024 mb | 215 ft | |||
| 02-5월 | 20:00 | n/a | 300° | 3 kt | Missing | 18° | 64° | 17° | 62° | 94% | 1024 mb | 95 ft | |||
| 02-5월 | 19:00 | n/a | 230° | 3 kt | Missing | 17° | 62° | 16° | 60° | 94% | 1023 mb | 5 ft | |||
| 02-5월 | 18:00 | n/a | Calm | Missing | 18° | 64° | 16° | 60° | 88% | 1023 mb | 125 ft | ||||
| 02-5월 | 17:00 | n/a | 80° | 3 kt | Missing | 21° | 69° | 16° | 60° | 73% | 1022 mb | 514 ft | |||
| 02-5월 | 16:00 | n/a | 50° | 5 kt | Missing | 22° | 71° | 16° | 60° | 69% | 1022 mb | 634 ft | |||
| 02-5월 | 15:00 | n/a | 50° | 8 kt | Missing | 23° | 73° | 16° | 60° | 65% | 1022 mb | 754 ft | |||
| 02-5월 | 14:00 | n/a | 100° | 9 kt | Missing | 25° | 77° | 17° | 62° | 61% | 1022 mb | 994 ft | |||
| 02-5월 | 13:00 | n/a | 60° | 10 kt | Missing | 24° | 75° | 15° | 59° | 57% | 1022 mb | 874 ft | |||
| 02-5월 | 12:00 | n/a | 40° | 8 kt | Missing | 24° | 75° | 16° | 60° | 61% | 1023 mb | 845 ft |
로그인
| 귀하의 브라우저는 지원되지 않습니다.. 브라우저를 업그레이드하세요 |
